Wind_Speed
21 22 22 21 20 20 19 17 16 16 16 16 16 17 17 17 17 17 17 17 17 16 15 15 15 14 14 13 12 12 11 11 10 9 9 8 7 7 8 8 9 10 11
24 25 25 24 23 21 20 19 17 18 18 17 17 16 17 17 17 18 18 18 18 17 17 17 17 16 15 14 14 13 13 12 12 11 11 10 10 10 10 10 11 12 12
23 26 27 25 24 23 22 21 19 20 20 19 18 17 18 18 19 19 19 19 19 19 19 19 18 18 17 17 16 16 15 15 14 14 14 13 13 12 12 13 13 13 14
25 27 29 28 27 26 24 24 22 23 23 21 20 20 19 20 20 20 20 21 21 21 21 21 21 20 20 19 19 19 17 17 17 17 17 16 16 15 14 15 15 15 15
33 31 30 31 30 29 27 27 25 25 24 24 22 22 21 20 20 21 21 21 21 22 22 22 22 22 22 21 21 20 20 19 20 19 19 19 19 18 17 17 17 17 17
37 37 34 34 33 33 32 31 28 26 25 24 24 23 23 22 22 22 22 22 22 23 23 23 24 24 24 24 24 24 23 23 23 22 23 22 22 22 22 20 20 19 19
36 35 38 37 37 38 35 32 30 27 24 24 24 24 23 23 22 22 22 22 23 23 24 24 25 25 26 26 26 26 27 26 26 26 26 25 25 25 26 24 24 23 21
33 32 33 34 37 38 35 33 30 26 25 24 24 24 23 22 22 22 22 22 23 23 23 24 25 26 26 27 28 28 29 29 29 29 29 29 29 28 29 29 27 28 26
31 30 29 30 31 34 35 33 29 26 25 25 24 23 22 21 21 21 22 22 23 23 23 25 25 26 26 27 28 29 29 30 31 31 32 32 32 31 32 32 31 31 30
27 28 29 29 31 33 32 30 29 27 25 24 23 22 21 21 20 20 21 21 22 22 23 24 25 25 26 27 28 29 30 31 32 32 33 34 34 34 34 34 34 34 34
24 24 26 27 27 27 28 27 27 25 24 23 22 21 20 20 19 19 19 20 21 21 22 23 24 25 26 28 29 30 31 32 33 34 35 35 36 36 36 36 36 35 37
23 23 23 22 24 25 26 26 25 24 23 22 21 20 19 18 18 18 18 18 19 20 21 22 23 24 26 28 29 31 33 33 35 35 36 37 37 37 37 37 37 36 37
24 24 24 25 25 25 26 25 24 23 22 21 20 18 17 16 15 16 17 18 19 21 22 24 25 26 28 29 31 32 33 34 35 37 37 38 39 39 39 39 39 38 38
26 26 26 26 25 24 23 24 24 22 21 20 18 17 18 19 21 23 25 27 28 29 30 30 31 32 33 33 34 34 34 35 36 38 38 38 40 40 40 41 40 40 39
27 27 25 25 25 25 25 24 23 23 22 20 21 22 24 27 28 28 27 26 26 27 28 29 30 30 30 31 31 32 34 37 39 39 41 40 41 40 41 42 41 41 41
27 27 27 27 27 26 26 26 26 25 24 24 26 28 28 27 25 25 26 28 29 30 31 31 31 31 32 32 33 35 36 37 38 39 40 41 43 43 42 42 42 42 41
30 29 28 28 28 28 28 28 28 27 28 28 27 26 26 27 27 28 28 29 30 31 32 33 34 35 36 37 38 39 41 42 42 43 44 44 43 42 42 42 42 42 43
31 30 29 29 29 30 30 30 30 29 28 27 26 26 26 27 27 29 30 31 32 33 34 35 37 37 38 38 39 41 43 42 41 38 39 40 39 39 36 37 37 40 45
33 31 31 31 32 31 32 31 30 28 27 27 26 26 27 29 30 32 33 35 36 37 38 39 40 41 40 40 41 41 43 44 43 42 41 40 38 37 39 42 42 43 42
35 34 34 33 32 32 32 30 29 28 27 27 29 30 32 34 36 37 38 39 40 40 40 38 36 36 37 36 37 39 39 41 42 41 41 39 39 39 41 44 44 44 41
38 37 36 34 32 32 31 29 28 28 30 31 34 36 38 38 39 39 40 40 39 38 36 35 34 35 35 36 37 38 39 40 42 40 40 40 40 39 39 41 43 40 38
38 37 35 34 33 30 29 29 30 32 33 35 36 37 38 38 39 39 38 38 38 37 36 36 36 36 36 36 36 37 38 38 39 40 40 38 37 38 38 39 40 39 39
34 33 31 29 27 28 29 31 32 34 35 36 36 37 38 39 37 36 36 36 36 37 36 36 36 36 36 36 35 35 34 35 37 38 40 39 36 37 37 38 36 36 40
27 27 26 27 27 29 30 32 33 35 35 36 37 37 36 35 34 35 36 36 36 36 36 36 36 37 37 36 35 34 33 33 34 35 38 39 37 36 38 38 38 37 41
26 26 27 28 29 31 32 33 34 35 36 36 35 35 34 34 34 35 36 36 37 37 38 37 37 38 37 35 35 35 34 32 32 33 35 37 39 37 39 39 38 39 41
27 28 29 30 31 32 32 34 35 36 36 35 34 34 34 35 36 37 36 37 38 37 37 37 37 38 38 38 37 36 36 36 34 34 36 37 37 38 37 36 34 34 36
Wind_Direction
226 229 230 231 232 233 234 237 238 236 233 232 230 230 230 229 229 229 227 227 224 223 223 223 222 223 221 219 217 219 219 222 225 229 237 245 257 269 279 287 293 299 304
222 226 231 231 235 236 237 239 239 238 236 236 235 234 233 233 230 230 229 229 228 226 224 224 224 224 226 226 227 228 232 235 240 245 253 259 265 272 278 285 292 298 303
226 229 235 235 238 240 241 240 240 240 239 239 238 236 234 232 232 231 230 230 229 227 226 226 226 227 228 230 231 233 236 241 247 251 255 259 265 273 280 286 292 296 300
240 234 238 239 240 241 240 238 239 242 242 240 240 239 237 236 234 232 232 230 230 229 228 228 228 230 232 233 236 239 242 245 249 255 259 263 267 271 277 283 287 292 295
246 244 240 241 241 241 239 241 238 242 244 244 244 243 241 238 237 236 234 235 234 233 232 232 231 233 234 237 240 244 246 249 253 258 264 268 272 275 277 281 287 291 294
244 247 242 238 240 238 237 239 240 241 244 247 247 246 246 241 239 238 237 236 236 235 235 235 235 236 237 238 241 244 248 251 255 258 263 267 272 278 280 282 283 286 290
239 238 242 239 236 237 236 238 241 242 245 249 249 248 247 245 243 242 241 241 241 239 238 238 239 240 242 243 244 246 249 252 255 258 261 265 269 273 276 280 282 283 283
235 232 236 239 235 236 236 236 239 241 245 248 248 249 248 247 246 246 245 245 245 244 244 244 244 245 246 248 250 251 253 255 257 259 262 264 267 271 274 277 279 282 283
234 234 233 232 232 230 229 232 235 238 241 245 246 248 249 248 248 247 247 247 248 247 246 247 248 249 250 251 253 255 257 259 261 262 264 266 268 269 272 275 277 279 281
231 229 228 228 226 221 223 226 231 234 238 242 243 243 245 248 250 250 249 249 249 249 249 250 251 253 254 256 258 258 259 260 261 263 264 266 268 269 271 273 275 278 279
225 223 224 222 219 218 221 224 228 232 236 236 238 240 241 244 247 248 248 250 251 251 252 252 254 255 257 259 260 261 262 263 263 264 265 266 267 268 269 271 273 275 277
220 215 211 209 209 212 217 222 228 229 229 230 231 232 235 238 241 244 248 250 253 253 254 256 257 259 260 262 263 264 265 266 267 266 267 268 268 269 269 269 270 271 272
214 211 210 210 212 216 219 222 223 223 225 226 225 222 222 226 232 240 247 251 255 258 260 262 262 263 265 266 267 268 269 269 269 270 269 269 269 269 269 269 269 270 270
212 213 214 216 216 217 218 220 221 219 214 213 216 224 236 246 254 260 263 264 265 266 267 267 267 267 267 267 267 268 269 270 269 269 269 268 269 270 270 269 268 268 267
216 214 214 215 217 218 218 214 210 211 216 224 236 247 256 263 265 266 266 267 269 271 272 274 274 274 275 275 274 274 273 272 272 271 272 271 270 269 269 269 269 267 267
218 216 213 213 213 211 210 210 215 222 233 245 254 260 259 259 260 262 265 267 269 270 271 272 273 274 275 276 277 277 277 277 277 277 275 272 270 269 268 266 266 266 265
218 214 212 211 212 214 217 221 228 238 248 254 251 250 252 255 258 261 263 265 266 268 268 269 270 272 274 276 278 278 278 278 278 277 277 276 275 270 267 264 264 263 263
217 214 215 218 220 224 229 235 243 250 250 249 252 255 258 260 262 265 267 268 269 270 271 271 272 273 275 276 278 280 281 281 280 279 278 277 273 269 268 266 265 263 262
219 218 222 225 228 234 239 244 248 247 250 254 259 262 266 270 273 275 275 276 276 276 276 276 277 278 278 278 278 277 276 275 275 275 275 274 272 266 260 259 261 262 261
221 225 228 230 235 242 245 247 248 253 258 262 267 270 272 274 274 274 274 274 275 275 275 275 275 277 279 280 280 280 278 278 277 274 271 269 268 266 261 265 263 265 261
226 228 231 235 244 246 246 247 251 255 261 265 268 270 272 274 276 277 279 279 277 275 272 273 275 277 279 279 279 279 279 279 277 276 272 268 268 267 262 263 264 263 257
231 233 235 242 243 241 244 250 256 261 265 268 270 273 275 278 280 281 279 276 274 272 272 273 274 275 277 277 277 278 278 278 277 276 273 271 266 264 262 260 261 258 256
231 234 232 232 237 245 251 256 261 265 268 270 272 274 278 280 280 278 276 274 274 273 273 273 273 274 275 275 276 277 279 279 278 277 274 271 265 261 258 258 258 258 258
219 224 232 240 248 254 258 261 264 266 268 271 273 276 278 277 275 273 273 273 272 273 275 276 276 276 277 277 277 277 276 279 279 278 277 274 267 259 258 256 255 255 258
233 241 249 254 257 259 261 266 269 272 275 277 277 276 275 274 273 273 273 274 275 276 275 276 277 276 276 276 276 276 276 278 278 276 273 270 268 263 259 258 256 254 255
246 250 253 255 262 265 266 269 272 275 276 276 275 274 273 273 273 272 272 273 273 273 274 275 277 276 277 276 276 276 276 275 276 274 272 270 267 263 258 255 252 251 251
Height
3115 3115 3117 3119 3122 3125 3128 3130 3133 3135 3136 3138 3140 3143 3145 3147 3150 3152 3154 3156 3159 3161 3163 3166 3168 3170 3172 3173 3175 3176 3177 3178 3179 3181 3181 3182 3183 3184 3184 3184 3184 3183 3183
3110 3111 3113 3116 3118 3122 3125 3127 3129 3131 3133 3135 3137 3140 3142 3145 3147 3149 3151 3154 3156 3158 3161 3163 3166 3168 3170 3172 3174 3175 3176 3178 3178 3180 3180 3181 3183 3182 3182 3182 3182 3181 3181
3106 3108 3109 3112 3114 3118 3121 3123 3126 3127 3129 3132 3134 3136 3138 3141 3143 3145 3148 3150 3153 3155 3158 3160 3163 3165 3167 3169 3171 3173 3174 3175 3176 3177 3179 3179 3180 3180 3180 3180 3180 3179 3179
3101 3104 3105 3107 3110 3113 3116 3119 3121 3123 3125 3128 3130 3132 3134 3137 3139 3141 3144 3147 3149 3152 3154 3157 3159 3162 3164 3166 3168 3169 3171 3172 3173 3174 3175 3176 3177 3177 3178 3177 3177 3177 3176
3094 3097 3101 3103 3105 3108 3111 3113 3116 3118 3121 3123 3126 3128 3130 3133 3135 3137 3140 3143 3146 3148 3151 3153 3155 3158 3160 3162 3165 3166 3168 3169 3170 3171 3171 3172 3172 3173 3174 3174 3174 3174 3173
3088 3090 3093 3096 3099 3102 3105 3107 3111 3113 3116 3119 3121 3124 3126 3128 3130 3133 3136 3139 3141 3144 3147 3149 3151 3153 3155 3158 3160 3162 3163 3165 3166 3167 3168 3168 3169 3169 3169 3170 3170 3171 3170
3081 3083 3084 3088 3091 3094 3098 3101 3105 3109 3112 3114 3117 3119 3121 3124 3126 3129 3131 3134 3137 3139 3142 3144 3146 3149 3151 3153 3155 3157 3158 3160 3161 3162 3163 3164 3164 3165 3164 3165 3165 3166 3167
3073 3075 3077 3080 3084 3088 3093 3096 3100 3104 3107 3109 3112 3114 3116 3119 3121 3124 3126 3129 3132 3134 3137 3139 3141 3143 3146 3148 3150 3152 3153 3155 3156 3157 3158 3159 3159 3160 3159 3160 3160 3160 3161
3066 3069 3071 3075 3078 3082 3087 3091 3095 3099 3102 3104 3106 3109 3111 3114 3116 3119 3121 3124 3126 3129 3132 3133 3136 3138 3140 3142 3144 3146 3147 3149 3150 3151 3152 3153 3154 3154 3154 3153 3155 3154 3155
3060 3063 3066 3069 3072 3077 3081 3086 3090 3094 3097 3099 3101 3104 3106 3108 3111 3113 3116 3118 3120 3123 3125 3128 3130 3132 3134 3135 3137 3139 3140 3142 3143 3144 3145 3146 3147 3148 3148 3148 3148 3148 3147
3054 3057 3060 3063 3068 3073 3077 3081 3084 3089 3091 3094 3096 3099 3102 3104 3106 3108 3110 3112 3115 3117 3119 3121 3123 3125 3127 3128 3130 3131 3132 3134 3135 3136 3137 3137 3138 3139 3140 3141 3141 3141 3140
3050 3053 3057 3060 3064 3068 3072 3076 3079 3083 3086 3089 3092 3094 3097 3099 3101 3103 3105 3107 3109 3112 3113 3115 3117 3118 3120 3121 3123 3124 3124 3126 3126 3127 3128 3129 3130 3130 3131 3132 3133 3133 3132
3047 3050 3053 3057 3061 3064 3068 3071 3075 3079 3081 3084 3087 3089 3092 3094 3096 3099 3101 3103 3104 3105 3107 3108 3110 3111 3112 3113 3115 3116 3116 3117 3118 3118 3119 3120 3120 3121 3122 3123 3123 3125 3124
3043 3046 3050 3053 3057 3061 3065 3068 3071 3074 3076 3079 3082 3085 3087 3089 3091 3093 3095 3096 3097 3098 3100 3101 3102 3103 3103 3104 3105 3106 3107 3107 3108 3108 3109 3110 3110 3112 3112 3112 3114 3114 3115
3039 3042 3046 3050 3054 3057 3060 3063 3066 3070 3073 3076 3078 3080 3082 3083 3085 3086 3087 3088 3089 3090 3092 3092 3093 3094 3094 3095 3095 3096 3096 3097 3097 3098 3098 3099 3099 3100 3101 3102 3103 3104 3105
3035 3039 3042 3045 3049 3052 3056 3059 3062 3065 3068 3070 3072 3074 3075 3076 3078 3079 3081 3082 3083 3084 3085 3085 3086 3086 3086 3087 3087 3087 3087 3088 3088 3088 3088 3088 3088 3089 3090 3090 3091 3093 3093
3030 3033 3037 3041 3044 3048 3051 3054 3057 3059 3061 3063 3065 3067 3069 3070 3072 3073 3074 3074 3075 3076 3077 3077 3077 3078 3077 3077 3077 3076 3076 3076 3077 3077 3076 3076 3077 3077 3077 3078 3079 3081 3082
3025 3028 3032 3036 3040 3043 3045 3048 3050 3052 3054 3056 3057 3059 3061 3062 3063 3064 3065 3065 3066 3066 3067 3067 3067 3067 3067 3066 3065 3065 3064 3063 3064 3065 3064 3064 3065 3065 3066 3067 3068 3069 3070
3019 3023 3027 3030 3033 3036 3039 3041 3043 3044 3046 3047 3049 3050 3051 3052 3053 3054 3055 3055 3055 3055 3055 3055 3055 3054 3055 3054 3054 3053 3052 3052 3052 3053 3054 3053 3053 3054 3055 3055 3056 3057 3058
3014 3017 3020 3024 3026 3029 3031 3033 3035 3037 3038 3039 3040 3042 3043 3044 3044 3044 3045 3045 3044 3044 3043 3043 3043 3043 3043 3042 3041 3040 3040 3039 3039 3041 3041 3042 3042 3043 3044 3043 3045 3046 3048
3007 3010 3014 3017 3019 3021 3023 3026 3027 3029 3030 3031 3032 3033 3033 3033 3033 3033 3033 3033 3033 3032 3032 3033 3033 3032 3032 3032 3030 3029 3028 3027 3027 3027 3029 3030 3031 3031 3033 3033 3033 3036 3037
3001 3004 3007 3010 3012 3014 3016 3017 3019 3020 3021 3021 3022 3022 3022 3022 3022 3022 3022 3022 3022 3022 3022 3021 3022 3021 3021 3020 3020 3018 3016 3015 3015 3015 3016 3018 3019 3019 3020 3022 3022 3024 3025
2995 2997 3000 3003 3005 3006 3007 3008 3009 3010 3011 3011 3011 3012 3012 3011 3011 3011 3011 3011 3011 3010 3010 3010 3010 3010 3010 3009 3009 3008 3006 3005 3003 3003 3003 3005 3006 3008 3009 3011 3012 3013 3013
2988 2991 2994 2995 2997 2998 2999 3000 3000 3001 3001 3001 3001 3001 3000 3000 3000 3000 3000 3000 3000 3000 2999 2999 2999 2998 2998 2998 2997 2996 2996 2994 2993 2993 2991 2991 2994 2997 2998 2999 3002 3002 3002
2983 2984 2986 2987 2989 2990 2990 2990 2990 2990 2990 2990 2989 2989 2989 2989 2989 2989 2989 2989 2989 2988 2988 2987 2987 2986 2987 2987 2986 2985 2985 2984 2983 2982 2981 2981 2982 2984 2986 2988 2990 2991 2992
2975 2977 2978 2978 2979 2979 2980 2980 2979 2979 2979 2979 2979 2978 2978 2978 2978 2978 2979 2978 2977 2977 2977 2976 2975 2975 2974 2975 2974 2974 2973 2973 2972 2971 2970 2971 2971 2973 2975 2977 2979 2981 2982